[[{"header":{"parameterUnit":"m.s-1","parameterCategory":1,"la1":30.2991,"la2":30.254,"lo1":-89.0895,"lo2":-89.0444,"dy":0.0017,"dx":0.0017,"nx":28,"ny":28,"refTime":"2024-07-09T03:00:00:Z","depth":0,"parameterNumber":2,"parameterNumberName":"U-component_of_WINDS"},"data":[0,0,0,0,0,0,0,0,0,0,0,0,0,0,0,0,0,0,0,0,0,0,0,0,0,0,0,0,0,0,0,0,0,0,0,0,0,0,0,0,0,0,0,0,0,0,0,0,0,0,0,0,0,0,0,0,0,0,-1.3254,-1.3254,0,-1.326,-1.326,-1.326,-1.3262,-1.3262,-1.3262,-1.3262,-1.3268,-1.3268,-1.3268,0,0,0,0,0,0,0,0,0,0,0,0,0,-1.3244,-1.3244,-1.3254,-1.3254,-1.3254,-1.326,-1.326,-1.326,-1.3262,-1.3262,-1.3262,-1.3262,-1.3268,-1.3268,-1.3268,0,0,0,0,0,0,0,0,0,0,0,0,0,-1.3249,-1.3244,-1.3254,-1.3256,-1.3256,-1.326,-1.326,-1.326,-1.3262,-1.3262,-1.3262,-1.3262,-1.3268,-1.3268,-1.3268,-1.3271,0,0,-1.3269,-1.3269,0,0,0,0,0,0,0,0,-1.3248,-1.3249,-1.3255,-1.3256,-1.3256,-1.326,-1.3258,-1.3263,-1.3262,-1.326,-1.3262,-1.3262,-1.3265,-1.3266,-1.3267,-1.3271,-1.3271,-1.3269,-1.3269,-1.3269,-1.3269,0,0,0,0,0,0,0,-1.3248,-1.3249,-1.3256,-1.3255,-1.3256,-1.3256,-1.3257,-1.3259,-1.3263,-1.326,-1.326,-1.3261,-1.3265,-1.3267,-1.3267,-1.3271,-1.3269,-1.3269,-1.327,-1.327,-1.3277,-1.3277,0,0,0,0,0,0,-1.3247,-1.3249,-1.3256,-1.3256,-1.3252,-1.3256,-1.3257,-1.3259,-1.3263,-1.3263,-1.3261,-1.3261,-1.3266,-1.3267,-1.3267,-1.327,-1.3269,-1.327,-1.327,-1.3277,-1.3277,-1.3277,0,0,0,0,0,0,-1.3247,-1.3248,-1.3256,-1.3252,-1.3253,-1.3257,-1.3258,-1.3259,-1.326,-1.3263,-1.3264,-1.3262,-1.3266,-1.3267,-1.327,-1.327,-1.327,-1.327,-1.3277,-1.3277,-1.3277,-1.3276,0,0,0,0,0,0,-1.3247,-1.3248,-1.3249,-1.3253,-1.3254,-1.3258,-1.3258,-1.3259,-1.3261,-1.3261,-1.3264,-1.3265,-1.3266,-1.3269,-1.327,-1.3271,-1.327,-1.3277,-1.3277,-1.3277,-1.3276,-1.3276,-1.3276,0,0,0,0,0,-1.3247,-1.3248,-1.3249,-1.325,-1.3255,-1.3258,-1.3259,-1.3261,-1.3261,-1.3262,-1.3264,-1.3265,-1.327,-1.327,-1.327,-1.3271,-1.3277,-1.3277,-1.3277,-1.3276,-1.3276,-1.3276,0,0,0,0,0,0,-1.3245,-1.3249,-1.325,-1.3253,-1.3255,-1.3258,-1.326,-1.3261,-1.3263,-1.3263,-1.3265,-1.3266,-1.3269,-1.327,-1.3269,-1.3273,-1.3273,-1.3274,-1.3272,-1.3272,-1.3272,-1.3272,-1.327,0,0,0,0,0,-1.3245,-1.3247,-1.3251,-1.3253,-1.3254,-1.3257,-1.3258,-1.3259,-1.3262,-1.3263,-1.3265,-1.3267,-1.327,-1.3271,-1.3273,-1.3276,-1.3277,-1.3277,-1.3277,-1.3277,-1.3277,-1.3278,-1.3278,-1.3277,-1.3277,-1.3277,0,0,-1.3245,-1.3247,-1.3249,-1.3253,-1.3255,-1.3257,-1.3258,-1.326,-1.3261,-1.3263,-1.3266,-1.3268,-1.327,-1.3273,-1.3274,-1.3274,-1.3277,-1.3277,-1.3277,-1.3277,-1.3278,-1.3278,-1.3279,-1.3277,-1.3277,-1.3277,0,0,-1.3246,-1.3248,-1.325,-1.3252,-1.3255,-1.3257,-1.3257,-1.3261,-1.3262,-1.3265,-1.3266,-1.3268,-1.3272,-1.3273,-1.3275,-1.3276,-1.3277,-1.3277,-1.3277,-1.3278,-1.3278,-1.3279,-1.3279,-1.3279,-1.3277,-1.3277,-1.3277,0,-1.3246,-1.3249,-1.3251,-1.3254,-1.3255,-1.3257,-1.3259,-1.3261,-1.3264,-1.3265,-1.3265,-1.327,-1.3272,-1.3275,-1.3275,-1.3276,-1.3277,-1.3277,-1.3278,-1.3278,-1.3278,-1.3279,-1.3279,-1.3277,-1.3277,-1.3277,-1.3277,0,-1.3248,-1.3251,-1.3252,-1.3256,-1.3257,-1.3259,-1.3262,-1.3263,-1.3264,-1.3266,-1.3269,-1.3271,-1.3274,-1.3274,-1.3275,-1.3277,-1.3277,-1.3278,-1.3278,-1.3279,-1.3279,-1.3279,-1.3277,-1.3277,-1.3277,-1.3277,0,0,-1.3249,-1.3253,-1.3254,-1.3255,-1.3259,-1.326,-1.3262,-1.3265,-1.3266,-1.3269,-1.327,-1.3273,-1.3274,-1.3275,-1.3277,-1.3278,-1.3279,-1.3278,-1.3278,-1.3278,-1.3281,-1.3281,-1.3281,-1.3279,-1.3279,-1.3279,-1.3281,0,-1.325,-1.3254,-1.3256,-1.3259,-1.3262,-1.3263,-1.3265,-1.3267,-1.3268,-1.327,-1.3272,-1.3274,-1.3274,-1.3275,-1.3277,-1.3278,-1.3279,-1.3278,-1.3281,-1.3281,-1.328,-1.3281,-1.3281,-1.3282,-1.3281,-1.3281,-1.3281,0,-1.3253,-1.3255,-1.3258,-1.3261,-1.3262,-1.3264,-1.3266,-1.3268,-1.3271,-1.3272,-1.3273,-1.3274,-1.3277,-1.3276,-1.3279,-1.3279,-1.328,-1.3281,-1.3281,-1.3281,-1.3281,-1.3281,-1.3282,-1.3282,-1.3281,-1.3281,-1.3281,0,-1.3253,-1.3257,-1.3259,-1.326,-1.3264,-1.3265,-1.3266,-1.3269,-1.327,-1.3272,-1.3273,-1.3275,-1.3277,-1.3278,-1.328,-1.328,-1.3283,-1.3283,-1.3283,-1.3283,-1.3284,-1.3284,-1.3285,-1.3285,-1.3285,-1.3285,-1.3285,0,-1.3254,-1.3256,-1.3259,-1.3261,-1.3263,-1.3265,-1.3267,-1.3268,-1.327,-1.3272,-1.3273,-1.3275,-1.3277,-1.3279,-1.328,-1.3282,-1.3283,-1.3284,-1.3284,-1.3284,-1.3283,-1.3284,-1.3284,-1.3285,-1.3285,-1.3285,-1.3285,0,-1.3255,-1.3257,-1.3259,-1.3262,-1.3263,-1.3265,-1.3267,-1.3268,-1.327,-1.3272,-1.3273,-1.3275,-1.3277,-1.3279,-1.3282,-1.3283,-1.3285,-1.3285,-1.3284,-1.3284,-1.3285,-1.3285,-1.3287,-1.3287,-1.3286,-1.3286,-1.3286,0,-1.3255,-1.3257,-1.326,-1.3261,-1.3263,-1.3265,-1.3266,-1.3268,-1.327,-1.3272,-1.3273,-1.3276,-1.3278,-1.3281,-1.3283,-1.3285,-1.3285,-1.3286,-1.3286,-1.3285,-1.3285,-1.3285,-1.3285,-1.3286,-1.3286,-1.3286,-1.3286,0,-1.3257,-1.3258,-1.326,-1.3262,-1.3264,-1.3266,-1.3268,-1.3269,-1.3271,-1.3272,-1.3275,-1.3276,-1.3279,-1.3281,-1.3283,-1.3285,-1.3286,-1.3286,-1.3286,-1.3286,-1.3285,-1.3285,-1.3284,-1.3286,-1.3286,-1.3286,-1.3286,-1.3286,-1.3257,-1.3259,-1.3261,-1.3263,-1.3265,-1.3267,-1.3268,-1.327,-1.3272,-1.3274,-1.3275,-1.3278,-1.328,-1.3283,-1.3284,-1.3286,-1.3286,-1.3286,-1.3286,-1.3286,-1.3286,-1.3285,-1.3286,-1.3286,-1.3286,-1.3286,-1.3286,0,-1.3259,-1.326,-1.3262,-1.3265,-1.3267,-1.3267,-1.327,-1.3271,-1.3273,-1.3275,-1.3277,-1.3279,-1.3281,-1.3283,-1.3285,-1.3286,-1.3287,-1.3287,-1.3287,-1.3287,-1.3286,-1.3286,-1.3286,-1.3286,-1.3286,-1.3286,-1.3286,-1.3286,-1.326,-1.3262,-1.3263,-1.3266,-1.3268,-1.327,-1.3271,-1.3273,-1.3274,-1.3277,-1.3279,-1.328,-1.3282,-1.3284,-1.3286,-1.3286,-1.3287,-1.3287,-1.3288,-1.3287,-1.3287,-1.3287,-1.3286,-1.3287,-1.3287,-1.3288,-1.3288,-1.3288]},{"header":{"parameterUnit":"m.s-1","parameterCategory":1,"la1":30.2991,"la2":30.254,"lo1":-89.0895,"lo2":-89.0444,"dy":0.0017,"dx":0.0017,"nx":28,"ny":28,"refTime":"2024-07-09T03:00:00:Z","depth":0,"parameterNumber":3,"parameterNumberName":"V-component_of_WINDS"},"data":[0,0,0,0,0,0,0,0,0,0,0,0,0,0,0,0,0,0,0,0,0,0,0,0,0,0,0,0,0,0,0,0,0,0,0,0,0,0,0,0,0,0,0,0,0,0,0,0,0,0,0,0,0,0,0,0,0,0,7.6294,7.6295,0,7.6388,7.6389,7.639,7.6316,7.6313,7.631,7.6307,7.6396,7.6402,7.6407,0,0,0,0,0,0,0,0,0,0,0,0,0,7.6044,7.6049,7.6294,7.6295,7.6297,7.6388,7.6389,7.639,7.6317,7.6313,7.6309,7.6305,7.6395,7.6401,7.6407,0,0,0,0,0,0,0,0,0,0,0,0,0,7.6146,7.605,7.6294,7.6271,7.627,7.6387,7.6389,7.639,7.6317,7.6313,7.6308,7.6304,7.6393,7.64,7.6408,7.6551,0,0,7.6432,7.6436,0,0,0,0,0,0,0,0,7.614,7.6155,7.6273,7.6273,7.6272,7.6336,7.6333,7.6444,7.6319,7.6299,7.6307,7.6301,7.638,7.6388,7.6416,7.6556,7.6559,7.6433,7.6438,7.6441,7.6444,0,0,0,0,0,0,0,7.6133,7.6151,7.6331,7.6275,7.6274,7.6253,7.6263,7.6354,7.6364,7.6301,7.6295,7.6308,7.6378,7.6408,7.6417,7.6561,7.6433,7.644,7.6445,7.6448,7.6819,7.6823,0,0,0,0,0,0,7.613,7.6146,7.6328,7.6334,7.6193,7.6262,7.6272,7.632,7.6363,7.6365,7.6312,7.6304,7.6397,7.6408,7.642,7.6588,7.6441,7.6449,7.6453,7.6814,7.682,7.6825,0,0,0,0,0,0,7.6125,7.6147,7.6324,7.6238,7.6259,7.6271,7.6325,7.6324,7.6354,7.6372,7.6372,7.6341,7.6394,7.6409,7.6519,7.6591,7.6452,7.646,7.6808,7.6815,7.6822,7.6928,0,0,0,0,0,0,7.6118,7.6145,7.6202,7.624,7.6264,7.6424,7.633,7.6329,7.6369,7.636,7.64,7.6402,7.6391,7.6507,7.6527,7.6599,7.6466,7.6801,7.6811,7.682,7.6918,7.6938,7.6955,0,0,0,0,0,7.6109,7.6227,7.6205,7.6228,7.6336,7.6428,7.6442,7.6429,7.6375,7.643,7.6441,7.64,7.658,7.6519,7.6541,7.6616,7.6796,7.6808,7.6819,7.6909,7.6934,7.6955,0,0,0,0,0,0,7.6195,7.6232,7.6208,7.6343,7.6383,7.6416,7.6486,7.6456,7.6511,7.65,7.648,7.649,7.6605,7.6621,7.6553,7.6755,7.6679,7.6695,7.674,7.6764,7.6782,7.6775,7.6472,0,0,0,0,0,7.623,7.6305,7.6332,7.6448,7.6469,7.6474,7.6514,7.6501,7.6541,7.6557,7.6576,7.6615,7.668,7.6723,7.6784,7.692,7.6926,7.6982,7.7001,7.7016,7.703,7.71,7.7124,7.6863,7.6863,7.6862,0,0,7.6302,7.6332,7.638,7.6466,7.6496,7.657,7.6489,7.6572,7.6627,7.6569,7.6674,7.6689,7.6731,7.6854,7.6909,7.6871,7.7103,7.7031,7.7043,7.7048,7.7114,7.7139,7.7161,7.687,7.6869,7.6868,0,0,7.6472,7.6503,7.6602,7.6634,7.668,7.6683,7.6706,7.6744,7.6752,7.6857,7.6815,7.6878,7.6991,7.7021,7.7052,7.7231,7.7194,7.7251,7.7348,7.7417,7.7437,7.7456,7.7517,7.754,7.7265,7.7265,7.7266,0,7.6556,7.6669,7.6656,7.6742,7.6779,7.6733,7.683,7.6861,7.6925,7.695,7.6908,7.7047,7.7072,7.72,7.7244,7.7271,7.7294,7.7246,7.7436,7.7454,7.7471,7.7529,7.7552,7.7272,7.7271,7.727,7.727,0,7.6768,7.6847,7.6921,7.6985,7.703,7.7122,7.712,7.7167,7.715,7.7155,7.7261,7.729,7.7354,7.7384,7.7367,7.7509,7.7484,7.7439,7.7362,7.7502,7.7557,7.7579,7.7281,7.7279,7.7277,7.7275,0,0,7.6995,7.705,7.7077,7.7104,7.7151,7.7211,7.7299,7.7363,7.7403,7.7448,7.7519,7.7615,7.7573,7.7608,7.7594,7.7655,7.7791,7.7602,7.7603,7.7634,7.7946,7.7978,7.8004,7.7768,7.7772,7.7776,7.7942,0,7.7165,7.7321,7.731,7.7455,7.7526,7.7482,7.7558,7.7593,7.7601,7.766,7.7666,7.7734,7.7676,7.7696,7.7754,7.7763,7.7853,7.7751,7.7831,7.7834,7.7821,7.8033,7.8068,7.8223,7.7963,7.7967,7.7969,0,7.7385,7.7438,7.7591,7.7626,7.7655,7.7724,7.7781,7.7839,7.7877,7.7878,7.7916,7.7891,7.7976,7.7898,7.8014,7.7944,7.7976,7.7985,7.7991,7.7996,7.7909,7.8042,7.8273,7.8295,7.8003,7.8,7.7998,0,7.7532,7.7642,7.7747,7.7772,7.7816,7.7865,7.7885,7.7918,7.7957,7.8006,7.803,7.8088,7.8119,7.8163,7.8154,7.8098,7.8271,7.8193,7.8271,7.8271,7.8308,7.8306,7.8545,7.8333,7.8332,7.8332,7.8331,0,7.7722,7.7817,7.7814,7.7878,7.7982,7.7967,7.8069,7.8083,7.8113,7.8177,7.8142,7.8202,7.8186,7.8245,7.8238,7.8333,7.8348,7.8349,7.8345,7.8351,7.8351,7.8371,7.8359,7.8338,7.8337,7.8335,7.8334,0,7.7904,7.7907,7.8018,7.805,7.8059,7.8134,7.816,7.8219,7.8223,7.8304,7.8322,7.8328,7.8395,7.839,7.8466,7.846,7.8577,7.8562,7.8565,7.8561,7.8639,7.8631,7.8898,7.8931,7.8699,7.8701,7.8703,0,7.8025,7.8097,7.8136,7.8178,7.8201,7.8268,7.8307,7.8295,7.8337,7.8384,7.8437,7.8501,7.8552,7.8661,7.867,7.8727,7.8711,7.8801,7.8719,7.8722,7.871,7.8705,7.8711,7.8816,7.8819,7.8821,7.8823,0,7.8238,7.8235,7.8294,7.8354,7.8402,7.8448,7.8489,7.8524,7.8515,7.8564,7.8633,7.8672,7.8749,7.8813,7.8866,7.8883,7.8851,7.8849,7.8869,7.8875,7.8873,7.8873,7.8607,7.8842,7.884,7.8839,7.8838,7.8837,7.8391,7.8452,7.8489,7.8555,7.8585,7.8625,7.8681,7.8692,7.875,7.8813,7.8802,7.8878,7.8911,7.8981,7.9003,7.9061,7.9028,7.9059,7.9066,7.9074,7.9082,7.8866,7.9071,7.907,7.907,7.9069,7.9069,0,7.86,7.8622,7.8683,7.8743,7.8794,7.8761,7.8805,7.8849,7.8918,7.8952,7.9003,7.9081,7.9141,7.9155,7.9212,7.9256,7.9242,7.9271,7.9267,7.9271,7.9109,7.9084,7.9281,7.9281,7.9281,7.9281,7.9281,7.9281,7.8715,7.8816,7.8817,7.893,7.895,7.9026,7.9053,7.9088,7.9116,7.9205,7.9255,7.9264,7.929,7.9348,7.9401,7.9403,7.9425,7.946,7.9456,7.9304,7.9283,7.9262,7.9239,7.9465,7.9465,7.9612,7.9614,7.9615]}]]